| time (UTC) | temp F | wind direction | speed MPH | gust MPH | rain 1hr in | rain 24hr in | rain mn in | humidity % | barometer mb |
| 20260505113057 | 36 | 355 | 8.0 | 14.0 | 0.00 | 0.00 | 0.00 | 67 | 1018.3 |
| 20260505111552 | 37 | 360 | 9.0 | 14.0 | 0.00 | 0.00 | 0.00 | 65 | 1018.1 |
| 20260505101551 | 39 | 355 | 8.0 | 14.0 | 0.00 | 0.00 | 0.00 | 59 | 1018.0 |
| 20260505100054 | 39 | 352 | 8.0 | 12.0 | 0.00 | 0.00 | 0.00 | 59 | 1017.8 |
| 20260505094550 | 40 | 9 | 9.0 | 13.0 | 0.00 | 0.00 | 0.00 | 57 | 1017.8 |
| 20260505093048 | 39 | 15 | 4.0 | 8.0 | 0.00 | 0.00 | 0.00 | 57 | 1017.6 |
| 20260505091557 | 39 | 0 | 0.0 | 0.0 | 0.00 | 0.00 | 0.00 | 57 | 1017.5 |
| 20260505090051 | 39 | 0 | 0.0 | 0.0 | 0.00 | 0.00 | 0.00 | 57 | 1017.5 |
| 20260505084551 | 40 | 0 | 0.0 | 0.0 | 0.00 | 0.00 | 0.00 | 57 | 1017.5 |
| 20260505083051 | 40 | 0 | 0.0 | 0.0 | 0.00 | 0.00 | 0.00 | 57 | 1017.6 |
| 20260505081553 | 40 | 0 | 0.0 | 6.0 | 0.00 | 0.00 | 0.00 | 56 | 1017.5 |
| 20260505080103 | 41 | 345 | 4.0 | 8.0 | 0.00 | 0.00 | 0.00 | 55 | 1017.6 |
| 20260505074556 | 41 | 350 | 5.0 | 11.0 | 0.00 | 0.00 | 0.00 | 54 | 1017.4 |
| 20260505073058 | 41 | 342 | 8.0 | 15.0 | 0.00 | 0.00 | 0.00 | 52 | 1017.4 |
| 20260505071550 | 41 | 16 | 11.0 | 15.0 | 0.00 | 0.00 | 0.00 | 51 | 1017.4 |
| 20260505070055 | 39 | 36 | 3.0 | 6.0 | 0.00 | 0.00 | 0.00 | 54 | 1017.5 |
| 20260505064555 | 37 | 46 | 2.0 | 5.0 | 0.00 | 0.00 | 0.00 | 55 | 1017.5 |
| 20260505063111 | 37 | 0 | 2.0 | 6.0 | 0.00 | 0.00 | 0.00 | 54 | 1017.5 |
| 20260505061555 | 37 | 0 | 0.0 | 3.0 | 0.00 | 0.00 | 0.00 | 54 | 1017.4 |
| 20260505060058 | 38 | 46 | 0.0 | 4.0 | 0.00 | 0.00 | 0.00 | 53 | 1017.2 |
| 20260505054608 | 39 | 46 | 4.0 | 6.0 | 0.00 | 0.00 | 0.00 | 51 | 1017.1 |
| 20260505053056 | 40 | 46 | 3.0 | 6.0 | 0.00 | 0.00 | 0.00 | 51 | 1017.1 |
| 20260505051555 | 39 | 46 | 3.0 | 5.0 | 0.00 | 0.00 | 0.00 | 52 | 1016.9 |
| 20260505041600 | 41 | 46 | 4.0 | 7.0 | 0.00 | 0.00 | 0.00 | 48 | 1017.1 |
| 20260505040058 | 42 | 47 | 5.0 | 10.0 | 0.00 | 0.00 | 0.00 | 46 | 1016.9 |
| 20260505034557 | 42 | 51 | 7.0 | 10.0 | 0.00 | 0.00 | 0.00 | 46 | 1016.7 |
| 20260505033105 | 43 | 50 | 9.0 | 19.0 | 0.00 | 0.00 | 0.00 | 44 | 1016.4 |
| 20260505031606 | 44 | 36 | 13.0 | 16.0 | 0.00 | 0.00 | 0.00 | 44 | 1016.2 |
| 20260505030113 | 44 | 42 | 13.0 | 17.0 | 0.00 | 0.00 | 0.00 | 42 | 1015.9 |
| 20260505024603 | 45 | 42 | 14.0 | 19.0 | 0.00 | 0.00 | 0.00 | 40 | 1015.5 |
| 20260505023054 | 46 | 43 | 13.0 | 23.0 | 0.00 | 0.00 | 0.00 | 38 | 1015.5 |
| 20260505021558 | 49 | 35 | 14.0 | 19.0 | 0.00 | 0.00 | 0.00 | 32 | 1015.3 |
| 20260505020054 | 50 | 5 | 13.0 | 22.0 | 0.00 | 0.00 | 0.00 | 28 | 1015.1 |
| 20260505014614 | 51 | 360 | 16.0 | 24.0 | 0.00 | 0.00 | 0.00 | 26 | 1014.9 |
| 20260505013053 | 52 | 5 | 15.0 | 22.0 | 0.00 | 0.00 | 0.00 | 24 | 1014.8 |
| 20260505011606 | 53 | 350 | 12.0 | 21.0 | 0.00 | 0.00 | 0.00 | 23 | 1014.5 |
| 20260505010054 | 53 | 332 | 13.0 | 28.0 | 0.00 | 0.00 | 0.00 | 23 | 1014.5 |
| 20260505004555 | 54 | 316 | 16.0 | 28.0 | 0.00 | 0.00 | 0.00 | 22 | 1014.5 |
| 20260505003055 | 54 | 360 | 17.0 | 25.0 | 0.00 | 0.00 | 0.00 | 22 | 1014.5 |
| 20260505001557 | 54 | 344 | 17.0 | 25.0 | 0.00 | 0.00 | 0.00 | 23 | 1014.5 |
| 20260505000107 | 55 | 321 | 20.0 | 28.0 | 0.00 | 0.00 | 0.00 | 23 | 1014.5 |
| 20260504234559 | 55 | 346 | 17.0 | 27.0 | 0.00 | 0.00 | 0.00 | 24 | 1014.6 |
| 20260504233108 | 55 | 348 | 17.0 | 30.0 | 0.00 | 0.00 | 0.00 | 24 | 1014.7 |
| 20260504231601 | 55 | 317 | 17.0 | 24.0 | 0.00 | 0.00 | 0.00 | 23 | 1014.6 |
| 20260504230055 | 54 | 323 | 19.0 | 29.0 | 0.00 | 0.00 | 0.00 | 25 | 1014.7 |
| 20260504224558 | 56 | 318 | 18.0 | 28.0 | 0.00 | 0.00 | 0.00 | 27 | 1014.5 |
| 20260504223127 | 55 | 340 | 15.0 | 28.0 | 0.00 | 0.00 | 0.00 | 30 | 1014.5 |
| 20260504221556 | 55 | 319 | 16.0 | 23.0 | 0.00 | 0.00 | 0.00 | 30 | 1014.5 |
| 20260504220057 | 53 | 323 | 15.0 | 27.0 | 0.00 | 0.00 | 0.00 | 31 | 1014.6 |
| 20260504214555 | 53 | 330 | 20.0 | 27.0 | 0.00 | 0.00 | 0.00 | 32 | 1014.7 |
| 20260504213102 | 53 | 337 | 17.0 | 27.0 | 0.00 | 0.00 | 0.00 | 32 | 1014.8 |
| 20260504211548 | 54 | 11 | 16.0 | 27.0 | 0.00 | 0.00 | 0.00 | 33 | 1014.9 |
| 20260504210056 | 53 | 330 | 21.0 | 33.0 | 0.00 | 0.00 | 0.00 | 33 | 1014.9 |
| 20260504204554 | 55 | 360 | 20.0 | 30.0 | 0.00 | 0.00 | 0.00 | 32 | 1014.8 |
| 20260504203108 | 55 | 352 | 20.0 | 26.0 | 0.00 | 0.00 | 0.00 | 31 | 1014.6 |
| 20260504201559 | 55 | 342 | 19.0 | 29.0 | 0.00 | 0.00 | 0.00 | 32 | 1014.6 |
| 20260504200056 | 54 | 324 | 19.0 | 32.0 | 0.00 | 0.00 | 0.00 | 34 | 1014.6 |
| 20260504194550 | 53 | 336 | 14.0 | 27.0 | 0.00 | 0.00 | 0.00 | 35 | 1014.5 |
| 20260504193104 | 53 | 329 | 16.0 | 24.0 | 0.00 | 0.00 | 0.00 | 35 | 1014.7 |
| 20260504191559 | 55 | 338 | 19.0 | 27.0 | 0.00 | 0.00 | 0.00 | 34 | 1014.8 |
| 20260504190053 | 54 | 322 | 16.0 | 28.0 | 0.00 | 0.00 | 0.00 | 35 | 1014.8 |
| 20260504184558 | 53 | 339 | 14.0 | 23.0 | 0.00 | 0.00 | 0.00 | 36 | 1014.7 |
| 20260504183053 | 54 | 319 | 14.0 | 21.0 | 0.00 | 0.00 | 0.00 | 35 | 1014.7 |
| 20260504181600 | 54 | 352 | 17.0 | 26.0 | 0.00 | 0.00 | 0.00 | 36 | 1014.7 |
| 20260504180054 | 54 | 344 | 14.0 | 23.0 | 0.00 | 0.00 | 0.00 | 36 | 1014.8 |
| 20260504174549 | 53 | 311 | 17.0 | 25.0 | 0.00 | 0.00 | 0.00 | 38 | 1014.9 |
| 20260504173052 | 52 | 309 | 14.0 | 23.0 | 0.00 | 0.00 | 0.00 | 41 | 1015.0 |
| 20260504171555 | 52 | 329 | 12.0 | 22.0 | 0.00 | 0.00 | 0.00 | 41 | 1014.9 |